Location: Rancho Del Sol Observatory
(38.7214°N, 120.6350°W)
Time: 22:42:56
(UTC-08:00)

Courier 1B Rocket - Pass Details

Date: 27 January 2020
Orbit: 920 x 1202 km, 28.2° (Epoch: 27 February)

Event Time Altitude Azimuth Distance (km) Brightness Sun altitude
Rises 09:40:17 0° 221° (SW) 4,050 8.3 22.3°
Reaches altitude 10° 09:43:53 10° 207° (SSW) 3,057 8.0 22.7°
Maximum altitude 09:49:21 22° 160° (SSE) 2,247 8.8 23.4°
Drops below altitude 10° 09:54:35 10° 114° (ESE) 2,925 8.7 24.0°
Sets 09:57:56 0° 99° (E) 3,830 8.8 24.4°
